When you browse on this site, cookies collect data to enhance your experience and personalize the content and advertising you see.
Visit our Privacy Policy to learn more. By continuing to use the site, you agree to this use of cookies and data.
  • In France
  • List of Countries
  • For 7 days
  • Water Temperature
  • Weather Map
  • Weather Widgets
  • user-avatar
    Login

    Hourly Weather Port Said

    Today, 23 August, Friday

    Time Temperature Precipitation Wind Pressure Humidity
    00:00 +26°C° 0 mm 4 mps 757 mmHg 73%
    01:00 +25°C° 0 mm 3 mps 757 mmHg 75%
    02:00 +24°C° 0 mm 3 mps 757 mmHg 77%
    03:00 +24°C° 0 mm 3 mps 757 mmHg 79%
    04:00 +24°C° 0 mm 3 mps 756 mmHg 81%
    05:00 +24°C° 0 mm 3 mps 756 mmHg 82%
    06:00 +26°C° 0 mm 3 mps 756 mmHg 72%
    07:00 +28°C° 0 mm 3 mps 756 mmHg 62%
    08:00 +31°C° 0 mm 3 mps 756 mmHg 52%
    09:00 +33°C° 0 mm 4 mps 756 mmHg 46%
    10:00 +34°C° 0 mm 4 mps 756 mmHg 40%
    11:00 +36°C° 0 mm 4 mps 756 mmHg 34%
    12:00 +36°C° 0 mm 5 mps 756 mmHg 34%
    13:00 +36°C° 0 mm 5 mps 755 mmHg 34%
    14:00 +38°C° 0 mm 6 mps 755 mmHg 34%
    15:00 +35°C° 0 mm 6 mps 755 mmHg 40%
    16:00 +34°C° 0 mm 6 mps 755 mmHg 45%
    17:00 +33°C° 0 mm 7 mps 755 mmHg 51%
    18:00 +32°C° 0 mm 6 mps 755 mmHg 59%
    19:00 +29°C° 0 mm 6 mps 756 mmHg 68%
    20:00 +28°C° 0 mm 5 mps 756 mmHg 76%
    21:00 +28°C° 0 mm 5 mps 756 mmHg 77%
    22:00 +27°C° 0 mm 4 mps 756 mmHg 77%
    23:00 +27°C° 0 mm 3 mps 756 mmHg 77%

    Tomorrow, 24 August, Saturday

    Time Temperature Precipitation Wind Pressure Humidity
    00:00 +26°C° 0 mm 3 mps 755 mmHg 79%
    01:00 +26°C° 0 mm 3 mps 755 mmHg 81%
    02:00 +25°C° 0 mm 2 mps 755 mmHg 83%
    03:00 +25°C° 0 mm 2 mps 755 mmHg 84%
    04:00 +25°C° 0 mm 2 mps 755 mmHg 85%
    05:00 +25°C° 0 mm 2 mps 755 mmHg 86%
    06:00 +27°C° 0 mm 2 mps 755 mmHg 77%
    07:00 +29°C° 0 mm 1 mps 756 mmHg 68%
    08:00 +31°C° 0 mm 1 mps 756 mmHg 58%
    09:00 +34°C° 0 mm 2 mps 756 mmHg 50%
    10:00 +36°C° 0 mm 2 mps 756 mmHg 42%
    11:00 +38°C° 0 mm 2 mps 756 mmHg 34%
    12:00 +38°C° 0 mm 4 mps 756 mmHg 32%
    13:00 +39°C° 0 mm 5 mps 755 mmHg 31%
    14:00 +40°C° 0 mm 6 mps 755 mmHg 29%
    15:00 +38°C° 0 mm 6 mps 755 mmHg 36%
    16:00 +36°C° 0 mm 6 mps 755 mmHg 43%
    17:00 +34°C° 0 mm 7 mps 755 mmHg 51%
    18:00 +33°C° 0 mm 6 mps 755 mmHg 59%
    19:00 +30°C° 0 mm 6 mps 756 mmHg 68%
    20:00 +29°C° 0 mm 5 mps 756 mmHg 76%
    21:00 +28°C° 0 mm 4 mps 756 mmHg 77%
    22:00 +28°C° 0 mm 4 mps 756 mmHg 78%
    23:00 +28°C° 0 mm 3 mps 757 mmHg 79%

    Day after tomorrow, 25 August, Sunday

    Time Temperature Precipitation Wind Pressure Humidity
    00:00 +27°C° 0 mm 3 mps 756 mmHg 81%
    01:00 +27°C° 0 mm 2 mps 756 mmHg 82%
    02:00 +26°C° 0 mm 2 mps 756 mmHg 84%
    03:00 +26°C° 0 mm 1 mps 756 mmHg 86%
    04:00 +25°C° 0 mm 1 mps 756 mmHg 88%
    05:00 +22°C° 0 mm 0 mps 756 mmHg 89%
    06:00 +24°C° 0 mm 0 mps 756 mmHg 80%
    07:00 +28°C° 0 mm 1 mps 756 mmHg 71%
    08:00 +30°C° 0 mm 1 mps 757 mmHg 62%
    09:00 +34°C° 0 mm 2 mps 757 mmHg 52%
    10:00 +36°C° 0 mm 3 mps 757 mmHg 41%
    11:00 +38°C° 0 mm 3 mps 757 mmHg 31%
    12:00 +39°C° 0 mm 5 mps 756 mmHg 34%
    13:00 +38°C° 0 mm 6 mps 756 mmHg 37%
    14:00 +38°C° 0 mm 7 mps 756 mmHg 39%
    15:00 +36°C° 0 mm 7 mps 756 mmHg 46%
    16:00 +34°C° 0 mm 7 mps 756 mmHg 52%
    17:00 +33°C° 0 mm 7 mps 755 mmHg 58%
    18:00 +32°C° 0 mm 6 mps 756 mmHg 64%
    19:00 +30°C° 0 mm 5 mps 756 mmHg 70%
    20:00 +29°C° 0 mm 4 mps 757 mmHg 76%
    21:00 +28°C° 0 mm 4 mps 757 mmHg 77%
    22:00 +27°C° 0 mm 3 mps 757 mmHg 79%
    23:00 +27°C° 0 mm 2 mps 757 mmHg 80%

    26 August, Monday

    Time Temperature Precipitation Wind Pressure Humidity
    00:00 +26°C° 0 mm 1 mps 757 mmHg 83%
    01:00 +25°C° 0 mm 1 mps 756 mmHg 86%
    02:00 +23°C° 0 mm 0 mps 756 mmHg 89%
    03:00 +25°C° 0 mm 1 mps 756 mmHg 89%
    04:00 +24°C° 0 mm 1 mps 756 mmHg 89%
    05:00 +24°C° 0 mm 1 mps 756 mmHg 89%
    06:00 +26°C° 0 mm 1 mps 757 mmHg 80%
    07:00 +28°C° 0 mm 1 mps 757 mmHg 71%
    08:00 +30°C° 0 mm 1 mps 757 mmHg 63%
    09:00 +32°C° 0 mm 2 mps 757 mmHg 52%
    10:00 +35°C° 0 mm 3 mps 757 mmHg 41%
    11:00 +38°C° 0 mm 3 mps 757 mmHg 31%
    12:00 +37°C° 0 mm 5 mps 757 mmHg 32%
    13:00 +38°C° 0 mm 6 mps 756 mmHg 33%
    14:00 +38°C° 0 mm 7 mps 756 mmHg 35%
    15:00 +36°C° 0 mm 7 mps 756 mmHg 42%
    16:00 +34°C° 0 mm 7 mps 756 mmHg 49%
    17:00 +33°C° 0 mm 7 mps 756 mmHg 56%
    18:00 +32°C° 0 mm 6 mps 756 mmHg 64%
    19:00 +29°C° 0 mm 6 mps 757 mmHg 71%
    20:00 +28°C° 0 mm 5 mps 757 mmHg 79%
    21:00 +27°C° 0 mm 4 mps 757 mmHg 81%
    22:00 +27°C° 0 mm 3 mps 757 mmHg 83%
    23:00 +26°C° 0 mm 2 mps 757 mmHg 85%

    27 August, Tuesday

    Time Temperature Precipitation Wind Pressure Humidity
    00:00 +26°C° 0 mm 2 mps 757 mmHg 87%
    01:00 +25°C° 0 mm 1 mps 757 mmHg 88%
    02:00 +25°C° 0 mm 1 mps 757 mmHg 90%
    03:00 +24°C° 0 mm 1 mps 757 mmHg 91%
    04:00 +24°C° 0 mm 1 mps 757 mmHg 91%
    05:00 +24°C° 0 mm 1 mps 757 mmHg 92%
    06:00 +26°C° 0 mm 1 mps 757 mmHg 84%
    07:00 +28°C° 0 mm 1 mps 757 mmHg 76%
    08:00 +29°C° 0 mm 1 mps 757 mmHg 68%
    09:00 +32°C° 0 mm 1 mps 757 mmHg 58%
    10:00 +35°C° 0 mm 2 mps 757 mmHg 48%
    11:00 +37°C° 0 mm 3 mps 757 mmHg 38%
    12:00 +37°C° 0 mm 4 mps 757 mmHg 37%
    13:00 +37°C° 0 mm 5 mps 756 mmHg 36%
    14:00 +38°C° 0 mm 6 mps 756 mmHg 35%
    15:00 +36°C° 0 mm 6 mps 756 mmHg 44%
    16:00 +34°C° 0 mm 6 mps 756 mmHg 53%
    17:00 +32°C° 0 mm 7 mps 756 mmHg 63%
    18:00 +30°C° 0 mm 6 mps 756 mmHg 69%
    19:00 +29°C° 0 mm 5 mps 757 mmHg 76%
    20:00 +27°C° 0 mm 4 mps 757 mmHg 82%
    21:00 +27°C° 0 mm 4 mps 757 mmHg 84%
    22:00 +26°C° 0 mm 3 mps 757 mmHg 86%
    23:00 +26°C° 0 mm 2 mps 757 mmHg 87%

    28 August, Wednesday

    Time Temperature Precipitation Wind Pressure Humidity
    00:00 +25°C° 0 mm 2 mps 757 mmHg 89%
    01:00 +25°C° 0 mm 2 mps 756 mmHg 90%
    02:00 +25°C° 0 mm 2 mps 756 mmHg 92%
    03:00 +25°C° 0 mm 2 mps 756 mmHg 92%
    04:00 +24°C° 0 mm 2 mps 756 mmHg 93%
    05:00 +24°C° 0 mm 2 mps 756 mmHg 94%
    06:00 +26°C° 0 mm 2 mps 756 mmHg 86%
    07:00 +27°C° 0 mm 2 mps 756 mmHg 79%
    08:00 +29°C° 0 mm 3 mps 756 mmHg 71%
    09:00 +31°C° 0 mm 3 mps 756 mmHg 59%
    10:00 +35°C° 0 mm 3 mps 756 mmHg 47%
    11:00 +37°C° 0 mm 3 mps 756 mmHg 35%
    12:00 +37°C° 0 mm 5 mps 756 mmHg 38%
    13:00 +38°C° 0 mm 6 mps 755 mmHg 40%
    14:00 +38°C° 0 mm 7 mps 755 mmHg 43%
    15:00 +35°C° 0 mm 7 mps 755 mmHg 50%
    16:00 +34°C° 0 mm 7 mps 755 mmHg 57%
    17:00 +32°C° 0 mm 7 mps 755 mmHg 63%
    18:00 +30°C° 0 mm 7 mps 755 mmHg 70%
    19:00 +29°C° 0 mm 6 mps 756 mmHg 78%
    20:00 +28°C° 0 mm 5 mps 756 mmHg 85%
    21:00 +27°C° 0 mm 4 mps 756 mmHg 86%
    22:00 +27°C° 0 mm 4 mps 756 mmHg 87%
    23:00 +26°C° 0 mm 3 mps 756 mmHg 87%
    Show more